QPF
0.00 0.00 0.00 0.00 0.00 0.00 0.00 0.00 0.00 0.00 0.00 0.00 0.00 0.00 0.00 0.00 0.00 0.00 0.00 0.01 0.03 0.03 0.02 0.01 0.01 0.01 0.02 0.03 0.04 0.05 0.04 0.04 0.03 0.04 0.04 0.05 0.06 0.06 0.05 0.05 0.04 0.04 0.03 0.03
0.00 0.00 0.00 0.00 0.00 0.00 0.00 0.00 0.00 0.00 0.00 0.01 0.01 0.00 0.00 0.00 0.00 0.00 0.00 0.00 0.01 0.01 0.02 0.01 0.02 0.01 0.01 0.02 0.02 0.04 0.07 0.07 0.07 0.06 0.06 0.05 0.06 0.07 0.06 0.06 0.05 0.04 0.03 0.02
0.00 0.00 0.00 0.00 0.00 0.00 0.00 0.00 0.00 0.00 0.00 0.00 0.00 0.00 0.00 0.00 0.00 0.00 0.00 0.00 0.00 0.00 0.01 0.01 0.03 0.01 0.01 0.01 0.01 0.02 0.05 0.09 0.10 0.11 0.11 0.10 0.07 0.06 0.06 0.07 0.05 0.04 0.03 0.02
0.00 0.00 0.00 0.00 0.00 0.00 0.00 0.00 0.00 0.00 0.00 0.00 0.00 0.01 0.01 0.00 0.00 0.00 0.00 0.00 0.00 0.00 0.00 0.00 0.00 0.01 0.01 0.01 0.03 0.03 0.05 0.08 0.09 0.09 0.09 0.10 0.12 0.12 0.10 0.09 0.08 0.08 0.06 0.04
0.00 0.00 0.00 0.00 0.00 0.00 0.00 0.00 0.00 0.00 0.00 0.00 0.00 0.01 0.01 0.00 0.01 0.01 0.00 0.00 0.00 0.00 0.00 0.00 0.00 0.00 0.00 0.01 0.03 0.04 0.06 0.08 0.08 0.06 0.05 0.05 0.06 0.08 0.08 0.09 0.10 0.10 0.09 0.07
0.00 0.00 0.00 0.00 0.00 0.00 0.00 0.00 0.00 0.00 0.00 0.00 0.00 0.00 0.00 0.00 0.00 0.00 0.00 0.00 0.00 0.00 0.00 0.01 0.01 0.01 0.00 0.01 0.02 0.03 0.06 0.07 0.05 0.04 0.05 0.04 0.03 0.03 0.02 0.02 0.04 0.06 0.07 0.07
0.00 0.00 0.00 0.00 0.00 0.00 0.01 0.01 0.00 0.00 0.00 0.00 0.00 0.00 0.01 0.01 0.00 0.00 0.00 0.00 0.00 0.00 0.00 0.00 0.01 0.01 0.02 0.02 0.02 0.02 0.05 0.08 0.07 0.04 0.03 0.02 0.03 0.03 0.03 0.03 0.03 0.05 0.06 0.06
0.00 0.00 0.00 0.00 0.00 0.00 0.00 0.00 0.00 0.00 0.00 0.00 0.00 0.01 0.01 0.00 0.00 0.01 0.00 0.00 0.00 0.00 0.00 0.00 0.01 0.02 0.02 0.02 0.02 0.02 0.04 0.08 0.06 0.02 0.02 0.02 0.03 0.02 0.02 0.02 0.03 0.04 0.05 0.07
0.00 0.00 0.00 0.00 0.00 0.00 0.00 0.00 0.00 0.00 0.00 0.00 0.01 0.01 0.01 0.00 0.00 0.00 0.01 0.01 0.01 0.01 0.01 0.00 0.01 0.01 0.01 0.01 0.02 0.02 0.02 0.05 0.04 0.02 0.02 0.02 0.02 0.02 0.02 0.02 0.03 0.03 0.03 0.05
0.00 0.00 0.00 0.00 0.00 0.00 0.00 0.00 0.00 0.00 0.00 0.00 0.00 0.00 0.01 0.01 0.01 0.00 0.00 0.00 0.01 0.01 0.01 0.01 0.01 0.01 0.01 0.01 0.02 0.03 0.02 0.03 0.03 0.02 0.02 0.03 0.03 0.02 0.02 0.01 0.03 0.02 0.02 0.04
0.00 0.00 0.00 0.00 0.01 0.01 0.00 0.00 0.00 0.00 0.00 0.01 0.01 0.00 0.00 0.01 0.01 0.00 0.00 0.00 0.00 0.01 0.01 0.01 0.01 0.01 0.01 0.02 0.02 0.02 0.03 0.02 0.02 0.03 0.03 0.03 0.04 0.03 0.02 0.01 0.03 0.02 0.03 0.04
0.00 0.00 0.00 0.00 0.00 0.00 0.00 0.00 0.00 0.00 0.01 0.00 0.00 0.00 0.00 0.00 0.00 0.01 0.01 0.01 0.00 0.01 0.01 0.01 0.01 0.01 0.01 0.03 0.02 0.01 0.02 0.02 0.02 0.02 0.03 0.03 0.06 0.05 0.03 0.03 0.04 0.03 0.03 0.03
0.00 0.00 0.00 0.00 0.00 0.00 0.00 0.00 0.00 0.00 0.00 0.00 0.00 0.00 0.00 0.00 0.00 0.00 0.01 0.01 0.01 0.00 0.01 0.01 0.01 0.01 0.01 0.02 0.01 0.01 0.02 0.01 0.01 0.01 0.02 0.03 0.05 0.04 0.05 0.04 0.05 0.03 0.03 0.03
0.00 0.00 0.00 0.00 0.00 0.00 0.00 0.00 0.00 0.00 0.00 0.00 0.00 0.00 0.00 0.00 0.00 0.00 0.00 0.01 0.01 0.00 0.01 0.01 0.00 0.01 0.01 0.01 0.01 0.02 0.02 0.01 0.01 0.01 0.01 0.02 0.03 0.04 0.06 0.05 0.04 0.03 0.02 0.02
0.00 0.00 0.00 0.00 0.00 0.00 0.00 0.00 0.00 0.00 0.00 0.00 0.00 0.00 0.00 0.00 0.00 0.00 0.00 0.01 0.01 0.01 0.00 0.01 0.00 0.00 0.00 0.01 0.01 0.01 0.02 0.01 0.01 0.01 0.01 0.01 0.02 0.03 0.06 0.05 0.03 0.03 0.02 0.02
0.00 0.00 0.00 0.00 0.00 0.00 0.00 0.00 0.00 0.00 0.00 0.00 0.00 0.00 0.00 0.00 0.00 0.01 0.01 0.00 0.00 0.01 0.01 0.01 0.01 0.01 0.01 0.01 0.00 0.00 0.00 0.00 0.00 0.01 0.01 0.02 0.02 0.03 0.04 0.03 0.02 0.02 0.02 0.02
0.00 0.00 0.00 0.00 0.00 0.00 0.00 0.00 0.00 0.00 0.00 0.00 0.00 0.00 0.00 0.01 0.00 0.00 0.00 0.00 0.01 0.01 0.01 0.02 0.02 0.02 0.01 0.01 0.01 0.01 0.01 0.01 0.01 0.01 0.01 0.02 0.02 0.03 0.03 0.03 0.03 0.03 0.02 0.02
0.00 0.00 0.00 0.00 0.00 0.00 0.00 0.00 0.00 0.00 0.00 0.00 0.00 0.00 0.00 0.00 0.00 0.00 0.00 0.00 0.01 0.01 0.01 0.01 0.01 0.01 0.01 0.01 0.01 0.01 0.01 0.01 0.01 0.02 0.02 0.02 0.02 0.03 0.02 0.02 0.03 0.03 0.02 0.02
0.00 0.00 0.00 0.01 0.00 0.00 0.00 0.00 0.00 0.00 0.00 0.00 0.00 0.00 0.00 0.00 0.01 0.00 0.00 0.00 0.00 0.00 0.00 0.00 0.01 0.01 0.01 0.01 0.00 0.00 0.00 0.01 0.01 0.02 0.02 0.02 0.02 0.02 0.01 0.02 0.02 0.02 0.01 0.01
0.00 0.00 0.01 0.01 0.01 0.00 0.00 0.00 0.00 0.00 0.00 0.00 0.00 0.00 0.00 0.02 0.02 0.01 0.00 0.00 0.00 0.00 0.01 0.01 0.01 0.01 0.00 0.01 0.01 0.01 0.01 0.02 0.01 0.01 0.01 0.01 0.01 0.01 0.01 0.02 0.01 0.01 0.01 0.01
0.01 0.01 0.01 0.01 0.01 0.00 0.00 0.00 0.00 0.00 0.00 0.00 0.00 0.00 0.01 0.03 0.03 0.01 0.01 0.01 0.00 0.01 0.01 0.02 0.01 0.00 0.00 0.00 0.00 0.00 0.00 0.00 0.00 0.00 0.00 0.00 0.01 0.01 0.01 0.01 0.01 0.01 0.01 0.01
0.01 0.01 0.02 0.02 0.01 0.00 0.00 0.00 0.00 0.00 0.00 0.00 0.00 0.00 0.02 0.03 0.02 0.01 0.01 0.00 0.00 0.01 0.02 0.02 0.01 0.00 0.00 0.00 0.00 0.00 0.00 0.00 0.00 0.00 0.01 0.01 0.01 0.01 0.01 0.01 0.01 0.01 0.01 0.01
0.01 0.01 0.01 0.02 0.01 0.00 0.00 0.00 0.00 0.00 0.00 0.00 0.00 0.01 0.02 0.03 0.02 0.01 0.01 0.00 0.00 0.01 0.02 0.03 0.02 0.01 0.01 0.01 0.00 0.00 0.00 0.00 0.00 0.00 0.00 0.00 0.00 0.01 0.01 0.01 0.01 0.01 0.01 0.01
0.01 0.00 0.01 0.01 0.02 0.01 0.00 0.00 0.00 0.00 0.00 0.00 0.00 0.01 0.02 0.02 0.01 0.01 0.00 0.00 0.00 0.01 0.01 0.01 0.02 0.02 0.01 0.01 0.01 0.00 0.00 0.00 0.00 0.00 0.00 0.01 0.01 0.01 0.01 0.01 0.01 0.01 0.01 0.01
0.01 0.01 0.01 0.01 0.01 0.01 0.01 0.00 0.00 0.00 0.00 0.00 0.00 0.01 0.01 0.01 0.01 0.01 0.00 0.00 0.00 0.00 0.01 0.01 0.02 0.02 0.01 0.01 0.01 0.01 0.01 0.00 0.00 0.00 0.00 0.01 0.01 0.01 0.01 0.01 0.02 0.01 0.01 0.01
0.00 0.01 0.01 0.01 0.00 0.00 0.00 0.00 0.00 0.00 0.00 0.00 0.00 0.01 0.01 0.01 0.01 0.01 0.01 0.01 0.01 0.01 0.01 0.01 0.01 0.01 0.01 0.01 0.01 0.01 0.01 0.01 0.00 0.00 0.00 0.01 0.01 0.01 0.02 0.02 0.01 0.01 0.01 0.00
MSLP
1012.87 1013.42 1013.88 1014.26 1014.60 1014.94 1015.34 1015.83 1016.43 1017.13 1017.86 1018.59 1019.24 1019.76 1020.11 1020.29 1020.32 1020.24 1020.10 1019.95 1019.81 1019.71 1019.65 1019.60 1019.53 1019.44 1019.30 1019.12 1018.92 1018.73 1018.59 1018.52 1018.55 1018.66 1018.84 1019.05 1019.25 1019.39 1019.44 1019.38 1019.21 1018.96 1018.68 1018.42
1013.22 1013.66 1014.01 1014.29 1014.55 1014.83 1015.21 1015.70 1016.32 1017.04 1017.81 1018.55 1019.20 1019.70 1020.03 1020.16 1020.15 1020.03 1019.87 1019.71 1019.59 1019.52 1019.50 1019.50 1019.50 1019.47 1019.39 1019.28 1019.15 1019.01 1018.92 1018.90 1018.96 1019.09 1019.28 1019.48 1019.66 1019.77 1019.79 1019.70 1019.52 1019.27 1018.99 1018.75
1013.45 1013.81 1014.07 1014.28 1014.48 1014.75 1015.11 1015.61 1016.25 1016.98 1017.74 1018.46 1019.08 1019.53 1019.80 1019.89 1019.83 1019.68 1019.51 1019.35 1019.25 1019.23 1019.26 1019.33 1019.40 1019.45 1019.47 1019.44 1019.39 1019.33 1019.31 1019.35 1019.44 1019.60 1019.79 1019.98 1020.14 1020.22 1020.21 1020.10 1019.92 1019.68 1019.43 1019.22
1013.57 1013.86 1014.07 1014.25 1014.44 1014.71 1015.09 1015.61 1016.26 1016.98 1017.71 1018.39 1018.94 1019.33 1019.52 1019.55 1019.44 1019.27 1019.08 1018.95 1018.88 1018.90 1019.00 1019.14 1019.29 1019.43 1019.53 1019.59 1019.63 1019.67 1019.72 1019.82 1019.96 1020.14 1020.34 1020.51 1020.65 1020.71 1020.68 1020.57 1020.39 1020.18 1019.97 1019.80
1013.62 1013.86 1014.05 1014.22 1014.44 1014.74 1015.15 1015.70 1016.35 1017.05 1017.74 1018.35 1018.83 1019.13 1019.25 1019.21 1019.07 1018.88 1018.70 1018.58 1018.56 1018.63 1018.78 1018.99 1019.21 1019.42 1019.60 1019.75 1019.88 1019.99 1020.12 1020.28 1020.46 1020.67 1020.86 1021.03 1021.15 1021.20 1021.16 1021.06 1020.90 1020.73 1020.57 1020.46
1013.64 1013.84 1014.02 1014.21 1014.46 1014.81 1015.27 1015.83 1016.48 1017.16 1017.79 1018.33 1018.73 1018.95 1019.01 1018.92 1018.76 1018.57 1018.41 1018.33 1018.35 1018.48 1018.68 1018.94 1019.22 1019.48 1019.72 1019.93 1020.12 1020.30 1020.49 1020.69 1020.91 1021.13 1021.34 1021.50 1021.62 1021.66 1021.63 1021.55 1021.43 1021.31 1021.21 1021.16
1013.67 1013.84 1014.01 1014.22 1014.51 1014.89 1015.38 1015.96 1016.60 1017.23 1017.81 1018.28 1018.61 1018.77 1018.79 1018.69 1018.53 1018.37 1018.26 1018.24 1018.31 1018.49 1018.73 1019.03 1019.33 1019.63 1019.90 1020.14 1020.37 1020.59 1020.81 1021.04 1021.28 1021.52 1021.73 1021.90 1022.02 1022.07 1022.06 1022.01 1021.94 1021.88 1021.85 1021.86
1013.73 1013.86 1014.03 1014.25 1014.56 1014.96 1015.46 1016.03 1016.63 1017.22 1017.73 1018.14 1018.41 1018.54 1018.55 1018.47 1018.36 1018.27 1018.24 1018.29 1018.43 1018.66 1018.94 1019.26 1019.57 1019.87 1020.15 1020.40 1020.63 1020.86 1021.09 1021.34 1021.59 1021.83 1022.05 1022.23 1022.35 1022.42 1022.45 1022.44 1022.42 1022.42 1022.45 1022.52
1013.82 1013.92 1014.07 1014.28 1014.59 1014.98 1015.45 1015.98 1016.53 1017.05 1017.51 1017.86 1018.10 1018.23 1018.26 1018.24 1018.22 1018.23 1018.30 1018.44 1018.66 1018.94 1019.26 1019.59 1019.90 1020.19 1020.44 1020.67 1020.89 1021.11 1021.34 1021.59 1021.84 1022.09 1022.31 1022.50 1022.65 1022.75 1022.80 1022.84 1022.88 1022.93 1023.01 1023.13
1013.90 1013.98 1014.11 1014.31 1014.58 1014.94 1015.36 1015.83 1016.30 1016.75 1017.13 1017.44 1017.66 1017.80 1017.90 1017.97 1018.06 1018.19 1018.38 1018.64 1018.95 1019.29 1019.64 1019.97 1020.27 1020.53 1020.76 1020.96 1021.15 1021.35 1021.57 1021.81 1022.06 1022.31 1022.55 1022.75 1022.92 1023.05 1023.16 1023.24 1023.32 1023.42 1023.55 1023.70
1013.93 1014.01 1014.13 1014.31 1014.55 1014.86 1015.21 1015.59 1015.97 1016.32 1016.64 1016.90 1017.12 1017.30 1017.47 1017.65 1017.86 1018.13 1018.45 1018.82 1019.21 1019.61 1019.99 1020.32 1020.61 1020.84 1021.04 1021.21 1021.39 1021.57 1021.78 1022.02 1022.27 1022.53 1022.78 1023.01 1023.21 1023.38 1023.53 1023.66 1023.78 1023.92 1024.08 1024.25
1013.89 1013.99 1014.13 1014.30 1014.52 1014.76 1015.04 1015.32 1015.60 1015.87 1016.11 1016.33 1016.55 1016.77 1017.01 1017.29 1017.63 1018.02 1018.46 1018.93 1019.40 1019.84 1020.24 1020.57 1020.85 1021.07 1021.24 1021.40 1021.57 1021.75 1021.96 1022.21 1022.48 1022.76 1023.04 1023.30 1023.54 1023.75 1023.93 1024.10 1024.27 1024.44 1024.62 1024.80
1013.77 1013.93 1014.11 1014.29 1014.48 1014.68 1014.88 1015.08 1015.26 1015.44 1015.61 1015.80 1016.01 1016.26 1016.57 1016.94 1017.38 1017.88 1018.40 1018.95 1019.47 1019.94 1020.35 1020.69 1020.96 1021.16 1021.34 1021.50 1021.68 1021.88 1022.12 1022.40 1022.70 1023.01 1023.32 1023.62 1023.90 1024.15 1024.37 1024.58 1024.79 1024.98 1025.18 1025.37
1013.60 1013.84 1014.07 1014.28 1014.47 1014.63 1014.77 1014.89 1014.99 1015.09 1015.20 1015.35 1015.55 1015.82 1016.17 1016.61 1017.12 1017.69 1018.28 1018.87 1019.42 1019.91 1020.32 1020.65 1020.91 1021.13 1021.32 1021.50 1021.71 1021.95 1022.23 1022.55 1022.90 1023.26 1023.61 1023.95 1024.27 1024.56 1024.82 1025.07 1025.31 1025.53 1025.74 1025.94
1013.43 1013.74 1014.03 1014.27 1014.47 1014.61 1014.70 1014.75 1014.78 1014.81 1014.87 1014.98 1015.17 1015.45 1015.84 1016.32 1016.87 1017.48 1018.10 1018.71 1019.26 1019.75 1020.15 1020.48 1020.75 1020.97 1021.18 1021.41 1021.66 1021.96 1022.30 1022.67 1023.07 1023.48 1023.88 1024.26 1024.61 1024.94 1025.25 1025.53 1025.80 1026.05 1026.28 1026.49
1013.29 1013.67 1013.99 1014.26 1014.46 1014.58 1014.63 1014.63 1014.60 1014.58 1014.59 1014.67 1014.85 1015.13 1015.53 1016.03 1016.61 1017.23 1017.86 1018.47 1019.02 1019.49 1019.88 1020.21 1020.48 1020.72 1020.97 1021.24 1021.55 1021.90 1022.31 1022.74 1023.19 1023.64 1024.08 1024.50 1024.89 1025.25 1025.59 1025.91 1026.20 1026.48 1026.74 1026.97
1013.21 1013.61 1013.95 1014.22 1014.40 1014.48 1014.49 1014.44 1014.37 1014.30 1014.28 1014.34 1014.51 1014.79 1015.20 1015.71 1016.30 1016.93 1017.56 1018.16 1018.70 1019.16 1019.55 1019.87 1020.15 1020.42 1020.70 1021.02 1021.38 1021.79 1022.25 1022.73 1023.23 1023.72 1024.19 1024.64 1025.05 1025.44 1025.81 1026.16 1026.48 1026.80 1027.09 1027.35
1013.18 1013.55 1013.86 1014.09 1014.23 1014.27 1014.24 1014.14 1014.02 1013.92 1013.87 1013.91 1014.08 1014.37 1014.78 1015.31 1015.91 1016.55 1017.18 1017.78 1018.32 1018.78 1019.17 1019.50 1019.80 1020.10 1020.41 1020.77 1021.18 1021.63 1022.13 1022.65 1023.18 1023.69 1024.18 1024.64 1025.08 1025.48 1025.87 1026.24 1026.60 1026.95 1027.27 1027.57
1013.14 1013.45 1013.69 1013.86 1013.93 1013.91 1013.81 1013.67 1013.51 1013.38 1013.32 1013.36 1013.52 1013.82 1014.25 1014.79 1015.41 1016.07 1016.72 1017.32 1017.88 1018.35 1018.76 1019.11 1019.44 1019.77 1020.12 1020.51 1020.95 1021.43 1021.95 1022.49 1023.03 1023.55 1024.05 1024.51 1024.95 1025.37 1025.77 1026.16 1026.55 1026.93 1027.29 1027.62
1013.02 1013.23 1013.39 1013.47 1013.46 1013.38 1013.23 1013.04 1012.85 1012.70 1012.63 1012.67 1012.84 1013.15 1013.60 1014.17 1014.81 1015.48 1016.16 1016.80 1017.38 1017.89 1018.33 1018.72 1019.08 1019.44 1019.82 1020.24 1020.69 1021.19 1021.71 1022.25 1022.79 1023.30 1023.80 1024.26 1024.70 1025.12 1025.53 1025.94 1026.35 1026.75 1027.15 1027.52
1012.75 1012.87 1012.93 1012.92 1012.85 1012.70 1012.51 1012.30 1012.09 1011.93 1011.86 1011.91 1012.09 1012.41 1012.88 1013.46 1014.13 1014.83 1015.54 1016.22 1016.84 1017.39 1017.88 1018.31 1018.72 1019.11 1019.51 1019.94 1020.41 1020.90 1021.42 1021.95 1022.47 1022.97 1023.45 1023.91 1024.34 1024.76 1025.18 1025.60 1026.03 1026.46 1026.88 1027.29
1012.30 1012.33 1012.31 1012.24 1012.11 1011.94 1011.73 1011.51 1011.30 1011.16 1011.09 1011.15 1011.34 1011.68 1012.15 1012.75 1013.42 1014.15 1014.88 1015.59 1016.26 1016.86 1017.39 1017.87 1018.32 1018.74 1019.17 1019.61 1020.08 1020.57 1021.07 1021.58 1022.08 1022.57 1023.03 1023.48 1023.91 1024.34 1024.76 1025.19 1025.63 1026.08 1026.53 1026.96
1011.65 1011.62 1011.55 1011.45 1011.31 1011.13 1010.94 1010.75 1010.58 1010.46 1010.42 1010.50 1010.70 1011.04 1011.51 1012.09 1012.77 1013.50 1014.24 1014.97 1015.67 1016.30 1016.88 1017.40 1017.88 1018.34 1018.78 1019.23 1019.70 1020.18 1020.66 1021.15 1021.64 1022.11 1022.57 1023.01 1023.44 1023.87 1024.30 1024.74 1025.19 1025.65 1026.11 1026.56
1010.85 1010.79 1010.70 1010.60 1010.49 1010.36 1010.22 1010.08 1009.97 1009.90 1009.91 1010.01 1010.22 1010.55 1011.00 1011.57 1012.22 1012.92 1013.66 1014.38 1015.08 1015.74 1016.34 1016.89 1017.40 1017.88 1018.34 1018.79 1019.25 1019.72 1020.20 1020.67 1021.14 1021.60 1022.06 1022.50 1022.93 1023.37 1023.81 1024.25 1024.71 1025.18 1025.65 1026.11
1009.97 1009.89 1009.82 1009.75 1009.69 1009.64 1009.58 1009.54 1009.51 1009.52 1009.58 1009.71 1009.93 1010.25 1010.67 1011.20 1011.80 1012.47 1013.16 1013.86 1014.54 1015.19 1015.80 1016.36 1016.88 1017.37 1017.83 1018.29 1018.75 1019.20 1019.67 1020.13 1020.59 1021.05 1021.51 1021.95 1022.40 1022.84 1023.29 1023.74 1024.20 1024.67 1025.14 1025.60
1009.08 1008.99 1008.94 1008.93 1008.94 1008.98 1009.03 1009.09 1009.17 1009.26 1009.39 1009.57 1009.80 1010.12 1010.51 1010.98 1011.53 1012.13 1012.76 1013.41 1014.06 1014.68 1015.27 1015.82 1016.33 1016.82 1017.28 1017.73 1018.18 1018.63 1019.08 1019.54 1019.99 1020.45 1020.91 1021.36 1021.82 1022.27 1022.72 1023.18 1023.65 1024.12 1024.59 1025.05
Thickness
5746 5741 5734 5736 5739 5737 5734 5730 5728 5731 5737 5732 5731 5733 5737 5739 5738 5737 5738 5739 5739 5739 5742 5742 5740 5739 5738 5736 5735 5734 5732 5731 5729 5727 5725 5722 5721 5721 5720 5719 5717 5716 5716 5715
5736 5731 5737 5739 5737 5733 5731 5727 5727 5730 5733 5730 5729 5731 5737 5737 5735 5736 5736 5736 5736 5737 5737 5737 5736 5735 5734 5732 5731 5730 5729 5727 5726 5723 5722 5720 5718 5718 5716 5714 5713 5713 5712 5711
5729 5733 5737 5733 5730 5728 5727 5725 5725 5722 5726 5729 5725 5725 5731 5734 5735 5734 5734 5735 5736 5734 5734 5734 5732 5732 5731 5729 5728 5726 5725 5724 5722 5720 5718 5716 5714 5713 5712 5711 5709 5709 5708 5707
5730 5733 5731 5728 5727 5727 5721 5728 5725 5721 5718 5718 5719 5711 5725 5730 5728 5729 5730 5731 5732 5732 5732 5730 5729 5728 5727 5727 5726 5724 5723 5721 5719 5717 5715 5713 5710 5709 5708 5708 5707 5705 5704 5703
5724 5727 5726 5723 5726 5726 5724 5726 5724 5721 5718 5715 5719 5712 5721 5727 5722 5725 5728 5729 5729 5730 5729 5727 5726 5725 5725 5723 5722 5720 5719 5717 5716 5714 5711 5709 5708 5707 5707 5705 5703 5703 5701 5700
5726 5730 5729 5727 5728 5727 5725 5722 5720 5720 5718 5706 5713 5710 5710 5720 5719 5722 5725 5727 5727 5727 5725 5724 5722 5721 5720 5718 5716 5715 5713 5712 5711 5710 5708 5706 5704 5703 5702 5701 5700 5700 5699 5697
5718 5723 5727 5728 5722 5722 5722 5714 5706 5703 5702 5704 5712 5707 5709 5720 5721 5721 5721 5723 5724 5723 5722 5720 5717 5715 5714 5712 5711 5710 5709 5707 5707 5706 5705 5704 5702 5701 5700 5699 5698 5697 5696 5695
5707 5708 5720 5723 5720 5716 5717 5715 5700 5691 5695 5703 5707 5704 5711 5719 5720 5720 5719 5719 5718 5718 5717 5714 5713 5711 5710 5709 5708 5707 5705 5704 5703 5702 5702 5701 5700 5698 5698 5696 5697 5696 5695 5693
5707 5706 5718 5719 5721 5719 5712 5712 5714 5705 5701 5695 5703 5706 5712 5717 5715 5714 5714 5713 5712 5712 5711 5709 5708 5708 5707 5705 5704 5703 5702 5701 5700 5699 5698 5697 5697 5696 5695 5694 5694 5693 5692 5691
5710 5702 5710 5713 5715 5711 5714 5711 5705 5697 5685 5685 5694 5698 5702 5706 5708 5709 5709 5708 5708 5708 5706 5705 5705 5704 5703 5703 5701 5700 5698 5698 5696 5695 5694 5693 5693 5693 5691 5691 5690 5689 5689 5688
5708 5700 5702 5705 5703 5703 5702 5700 5699 5697 5693 5683 5682 5694 5711 5708 5707 5705 5706 5707 5705 5704 5702 5700 5700 5700 5700 5699 5697 5695 5694 5693 5692 5691 5690 5689 5689 5688 5688 5687 5686 5685 5685 5684
5702 5700 5696 5699 5704 5705 5703 5701 5697 5686 5686 5685 5682 5691 5712 5707 5705 5703 5703 5703 5702 5700 5699 5697 5696 5695 5695 5694 5693 5692 5691 5690 5688 5687 5686 5685 5684 5683 5683 5682 5682 5681 5681 5680
5695 5693 5685 5687 5690 5695 5693 5693 5692 5690 5686 5682 5677 5688 5706 5704 5701 5700 5698 5698 5697 5696 5695 5694 5692 5691 5690 5690 5689 5688 5687 5686 5684 5683 5682 5682 5681 5680 5679 5679 5678 5677 5676 5675
5692 5691 5685 5679 5685 5689 5686 5685 5684 5682 5678 5679 5683 5687 5695 5695 5693 5693 5693 5693 5692 5691 5690 5689 5687 5687 5687 5686 5685 5685 5683 5682 5681 5680 5678 5677 5676 5675 5675 5674 5673 5672 5671 5670
5687 5684 5685 5685 5685 5683 5681 5680 5680 5677 5680 5676 5682 5683 5687 5689 5687 5687 5687 5686 5684 5684 5684 5683 5683 5683 5683 5682 5682 5681 5680 5679 5677 5676 5674 5673 5672 5671 5670 5668 5667 5667 5666 5665
5681 5677 5677 5675 5677 5675 5673 5677 5677 5675 5676 5675 5675 5677 5688 5686 5685 5683 5682 5679 5677 5677 5678 5679 5679 5679 5679 5679 5679 5678 5676 5675 5674 5672 5670 5668 5667 5665 5663 5663 5662 5661 5659 5659
5672 5671 5666 5668 5670 5667 5667 5677 5674 5674 5676 5674 5669 5676 5678 5675 5674 5674 5675 5674 5673 5673 5673 5673 5674 5675 5675 5676 5676 5674 5674 5672 5670 5668 5666 5663 5661 5659 5658 5657 5656 5655 5654 5653
5665 5663 5661 5661 5659 5651 5675 5681 5676 5671 5672 5672 5669 5669 5668 5668 5669 5671 5671 5670 5669 5669 5669 5669 5670 5671 5672 5673 5672 5671 5669 5667 5665 5663 5661 5659 5656 5655 5653 5652 5651 5650 5649 5648
5660 5656 5652 5651 5649 5658 5668 5670 5667 5662 5661 5664 5662 5662 5662 5663 5665 5668 5667 5664 5663 5664 5664 5665 5666 5666 5667 5667 5667 5666 5664 5663 5660 5658 5657 5655 5653 5650 5648 5647 5646 5645 5644 5643
5649 5651 5647 5644 5638 5645 5662 5664 5664 5659 5654 5657 5655 5654 5653 5653 5654 5660 5660 5658 5658 5658 5659 5660 5660 5661 5661 5661 5661 5660 5659 5658 5656 5654 5652 5651 5649 5646 5644 5643 5642 5641 5639 5637
5640 5638 5638 5639 5637 5649 5657 5655 5654 5643 5648 5652 5651 5649 5647 5646 5648 5650 5651 5651 5652 5652 5652 5653 5654 5654 5655 5655 5654 5653 5653 5652 5651 5649 5647 5645 5644 5642 5640 5638 5637 5635 5634 5632
5640 5636 5635 5634 5631 5639 5648 5645 5642 5645 5647 5646 5644 5643 5641 5641 5642 5642 5643 5644 5645 5645 5646 5646 5646 5647 5647 5647 5647 5647 5646 5646 5645 5643 5641 5639 5638 5637 5635 5632 5631 5630 5628 5626
5632 5635 5637 5636 5637 5640 5640 5640 5639 5639 5638 5638 5637 5636 5635 5634 5634 5635 5637 5638 5639 5639 5639 5639 5639 5639 5640 5640 5640 5640 5640 5639 5638 5637 5635 5634 5633 5631 5629 5627 5624 5623 5621 5620
5625 5622 5624 5626 5630 5630 5630 5631 5631 5630 5629 5630 5630 5629 5628 5627 5628 5628 5629 5631 5631 5632 5632 5632 5633 5633 5634 5634 5633 5633 5633 5633 5632 5631 5630 5629 5628 5626 5624 5621 5620 5617 5616 5615
5616 5613 5614 5618 5622 5621 5622 5623 5624 5623 5622 5622 5622 5621 5621 5620 5620 5621 5623 5624 5624 5625 5626 5626 5626 5627 5627 5628 5627 5627 5627 5626 5626 5625 5624 5623 5622 5620 5618 5615 5614 5612 5612 5610
5611 5609 5609 5613 5618 5615 5617 5618 5617 5615 5615 5615 5614 5614 5614 5614 5614 5615 5616 5618 5618 5619 5620 5620 5620 5620 5621 5621 5621 5620 5620 5619 5619 5619 5618 5616 5615 5613 5611 5609 5606 5603 5603 5602